| time (UTC) | temp F | wind direction | speed MPH | gust MPH | rain 1hr in | rain 24hr in | rain mn in | humidity % | barometer mb |
| 20260510062240 | 69 | 311 | 0.0 | 1.0 | 0.00 | 0.00 | 0.00 | 91 | 1014.3 |
| 20260510061736 | 69 | 318 | 0.0 | 1.0 | 0.00 | 0.00 | 0.00 | 91 | 1014.4 |
| 20260510061233 | 69 | 328 | 0.0 | 1.0 | 0.00 | 0.00 | 0.00 | 91 | 1014.3 |
| 20260510060729 | 69 | 29 | 0.0 | 1.0 | 0.00 | 0.00 | 0.00 | 91 | 1014.2 |
| 20260510060226 | 69 | 29 | 0.0 | 2.0 | 0.00 | 0.00 | 0.00 | 91 | 1014.3 |
| 20260510055723 | 69 | 41 | 0.0 | 1.0 | 0.00 | 0.00 | 0.00 | 91 | 1014.2 |
| 20260510055222 | 69 | 318 | 0.0 | 0.0 | 0.00 | 0.00 | 0.00 | 91 | 1014.6 |
| 20260510054721 | 69 | 318 | 0.0 | 0.0 | 0.00 | 0.00 | 0.00 | 91 | 1014.6 |
| 20260510054217 | 69 | 328 | 0.0 | 1.0 | 0.00 | 0.00 | 0.00 | 91 | 1014.8 |
| 20260510053711 | 69 | 14 | 0.0 | 1.0 | 0.00 | 0.00 | 0.00 | 91 | 1014.5 |
| 20260510053208 | 69 | 328 | 0.0 | 0.0 | 0.00 | 0.00 | 0.00 | 91 | 1014.7 |
| 20260510052704 | 69 | 17 | 0.0 | 1.0 | 0.00 | 0.00 | 0.00 | 91 | 1014.8 |
| 20260510052200 | 69 | 227 | 0.0 | 0.0 | 0.00 | 0.00 | 0.00 | 91 | 1014.8 |
| 20260510051656 | 69 | 318 | 0.0 | 1.0 | 0.00 | 0.00 | 0.00 | 91 | 1015.0 |
| 20260510051152 | 69 | 294 | 0.0 | 1.0 | 0.00 | 0.00 | 0.00 | 91 | 1014.9 |
| 20260510050650 | 69 | 326 | 0.0 | 0.0 | 0.00 | 0.00 | 0.00 | 91 | 1015.1 |
| 20260510050147 | 69 | 326 | 0.0 | 0.0 | 0.00 | 0.00 | 0.00 | 91 | 1015.0 |
| 20260510045643 | 69 | 330 | 0.0 | 0.0 | 0.00 | 0.00 | 0.00 | 91 | 1015.2 |
| 20260510045140 | 69 | 294 | 0.0 | 1.0 | 0.00 | 0.00 | 0.00 | 91 | 1015.3 |
| 20260510044636 | 69 | 345 | 0.0 | 1.0 | 0.00 | 0.00 | 0.00 | 91 | 1015.2 |
| 20260510044134 | 69 | 304 | 0.0 | 1.0 | 0.00 | 0.00 | 0.00 | 91 | 1015.3 |
| 20260510043630 | 68 | 33 | 0.0 | 1.0 | 0.00 | 0.00 | 0.00 | 91 | 1015.3 |
| 20260510043126 | 68 | 282 | 0.0 | 1.0 | 0.00 | 0.00 | 0.00 | 91 | 1015.0 |
| 20260510042624 | 68 | 282 | 0.0 | 1.0 | 0.00 | 0.00 | 0.00 | 91 | 1015.1 |
| 20260510042119 | 68 | 358 | 0.0 | 0.0 | 0.00 | 0.00 | 0.00 | 91 | 1015.1 |
| 20260510041617 | 68 | 358 | 0.0 | 1.0 | 0.00 | 0.00 | 0.00 | 91 | 1015.3 |
| 20260510041114 | 68 | 17 | 0.0 | 1.0 | 0.00 | 0.00 | 0.00 | 91 | 1015.3 |
| 20260510040611 | 68 | 10 | 0.0 | 0.0 | 0.00 | 0.00 | 0.00 | 91 | 1015.3 |
| 20260510040108 | 68 | 10 | 0.0 | 0.0 | 0.00 | 0.26 | 0.26 | 91 | 1015.1 |
| 20260510035603 | 68 | 10 | 0.0 | 0.0 | 0.00 | 0.26 | 0.26 | 91 | 1015.0 |
| 20260510035058 | 69 | 10 | 0.0 | 0.0 | 0.00 | 0.26 | 0.26 | 91 | 1015.0 |
| 20260510034556 | 68 | 10 | 0.0 | 0.0 | 0.00 | 0.26 | 0.26 | 91 | 1015.2 |
| 20260510034053 | 69 | 29 | 0.0 | 0.0 | 0.00 | 0.26 | 0.26 | 91 | 1015.3 |
| 20260510033549 | 69 | 29 | 0.0 | 0.0 | 0.00 | 0.26 | 0.26 | 91 | 1015.3 |
| 20260510033047 | 69 | 29 | 0.0 | 1.0 | 0.00 | 0.26 | 0.26 | 91 | 1015.3 |
| 20260510032543 | 69 | 254 | 0.0 | 0.0 | 0.00 | 0.26 | 0.26 | 91 | 1015.3 |
| 20260510032039 | 69 | 254 | 0.0 | 0.0 | 0.00 | 0.26 | 0.26 | 91 | 1015.3 |
| 20260510031539 | 69 | 282 | 0.0 | 0.0 | 0.00 | 0.26 | 0.26 | 91 | 1015.2 |
| 20260510031035 | 69 | 282 | 0.0 | 0.0 | 0.00 | 0.26 | 0.26 | 91 | 1015.0 |
| 20260510030530 | 69 | 282 | 0.0 | 1.0 | 0.00 | 0.26 | 0.26 | 91 | 1014.9 |
| 20260510030028 | 69 | 311 | 0.0 | 0.0 | 0.00 | 0.26 | 0.26 | 91 | 1014.8 |
| 20260510025525 | 69 | 319 | 0.0 | 1.0 | 0.00 | 0.26 | 0.26 | 91 | 1014.8 |
| 20260510025023 | 69 | 307 | 0.0 | 1.0 | 0.00 | 0.26 | 0.26 | 91 | 1014.7 |
| 20260510024519 | 69 | 25 | 0.0 | 1.0 | 0.00 | 0.26 | 0.26 | 91 | 1014.7 |
| 20260510024015 | 69 | 269 | 0.0 | 0.0 | 0.00 | 0.26 | 0.26 | 91 | 1014.8 |
| 20260510023511 | 69 | 269 | 0.0 | 0.0 | 0.00 | 0.26 | 0.26 | 91 | 1014.7 |
| 20260510023009 | 69 | 274 | 0.0 | 1.0 | 0.00 | 0.26 | 0.26 | 91 | 1014.7 |
| 20260510022508 | 69 | 227 | 0.0 | 0.0 | 0.00 | 0.26 | 0.26 | 91 | 1014.4 |
| 20260510022008 | 69 | 231 | 0.0 | 0.0 | 0.00 | 0.26 | 0.26 | 91 | 1014.4 |
| 20260510021505 | 69 | 45 | 0.0 | 0.0 | 0.00 | 0.26 | 0.26 | 91 | 1014.4 |
| 20260510021002 | 69 | 45 | 0.0 | 1.0 | 0.00 | 0.26 | 0.26 | 91 | 1014.1 |
| 20260510020456 | 69 | 275 | 0.0 | 0.0 | 0.00 | 0.26 | 0.26 | 91 | 1014.1 |
| 20260510015952 | 69 | 266 | 0.0 | 1.0 | 0.00 | 0.26 | 0.26 | 91 | 1014.5 |
| 20260510015448 | 69 | 241 | 0.0 | 2.0 | 0.00 | 0.26 | 0.26 | 91 | 1014.4 |
| 20260510014943 | 69 | 324 | 0.0 | 1.0 | 0.00 | 0.26 | 0.26 | 91 | 1014.3 |
| 20260510014441 | 69 | 341 | 1.0 | 2.0 | 0.00 | 0.26 | 0.26 | 91 | 1014.4 |
| 20260510013938 | 69 | 5 | 1.0 | 2.0 | 0.00 | 0.26 | 0.26 | 91 | 1014.5 |
| 20260510013432 | 69 | 275 | 1.0 | 4.0 | 0.00 | 0.26 | 0.26 | 91 | 1014.3 |
| 20260510012928 | 69 | 237 | 0.0 | 2.0 | 0.00 | 0.26 | 0.26 | 91 | 1014.2 |
| 20260510012423 | 69 | 227 | 0.0 | 1.0 | 0.00 | 0.26 | 0.26 | 91 | 1014.2 |
| 20260510011918 | 69 | 278 | 0.0 | 2.0 | 0.00 | 0.26 | 0.26 | 91 | 1013.9 |
| 20260510011413 | 69 | 240 | 0.0 | 1.0 | 0.00 | 0.26 | 0.26 | 91 | 1013.9 |
| 20260510010910 | 69 | 269 | 0.0 | 1.0 | 0.00 | 0.26 | 0.26 | 91 | 1013.8 |
| 20260510010407 | 70 | 227 | 0.0 | 2.0 | 0.00 | 0.26 | 0.26 | 91 | 1013.9 |
| 20260510005904 | 70 | 274 | 0.0 | 1.0 | 0.00 | 0.26 | 0.26 | 91 | 1013.8 |
| 20260510005400 | 70 | 267 | 2.0 | 3.0 | 0.00 | 0.26 | 0.26 | 91 | 1013.9 |
| 20260510004857 | 70 | 246 | 1.0 | 2.0 | 0.00 | 0.26 | 0.26 | 91 | 1013.7 |
| 20260510004355 | 70 | 278 | 0.0 | 0.0 | 0.00 | 0.26 | 0.26 | 91 | 1013.6 |
| 20260510003853 | 70 | 278 | 0.0 | 0.0 | 0.00 | 0.26 | 0.26 | 91 | 1013.5 |
| 20260510003349 | 70 | 241 | 0.0 | 0.0 | 0.00 | 0.26 | 0.26 | 91 | 1013.6 |
| 20260510002848 | 70 | 254 | 0.0 | 2.0 | 0.00 | 0.26 | 0.26 | 91 | 1013.8 |
| 20260510002346 | 70 | 263 | 0.0 | 2.0 | 0.00 | 0.26 | 0.26 | 91 | 1013.8 |
| 20260510001842 | 70 | 227 | 0.0 | 0.0 | 0.00 | 0.26 | 0.26 | 91 | 1013.9 |
| 20260510001340 | 70 | 227 | 0.0 | 1.0 | 0.02 | 0.26 | 0.26 | 91 | 1013.9 |
| 20260510000836 | 70 | 228 | 0.0 | 2.0 | 0.02 | 0.26 | 0.26 | 91 | 1014.1 |
| 20260510000333 | 70 | 240 | 0.0 | 2.0 | 0.00 | 0.26 | 0.26 | 91 | 1014.5 |
| 20260509235830 | 70 | 248 | 3.0 | 3.0 | 0.00 | 0.26 | 0.26 | 91 | 1014.3 |
| 20260509235327 | 70 | 243 | 1.0 | 5.0 | 0.00 | 0.26 | 0.26 | 91 | 1014.3 |
| 20260509234822 | 70 | 218 | 1.0 | 3.0 | 0.00 | 0.26 | 0.26 | 91 | 1014.1 |
| 20260509234319 | 70 | 215 | 0.0 | 1.0 | 0.00 | 0.26 | 0.26 | 91 | 1014.0 |
| 20260509233818 | 71 | 227 | 0.0 | 0.0 | 0.00 | 0.26 | 0.26 | 91 | 1014.2 |
| 20260509233315 | 71 | 254 | 0.0 | 1.0 | 0.00 | 0.26 | 0.26 | 91 | 1014.1 |
| 20260509232810 | 71 | 202 | 0.0 | 1.0 | 0.02 | 0.26 | 0.26 | 91 | 1014.1 |
| 20260509232308 | 71 | 233 | 0.0 | 1.0 | 0.02 | 0.26 | 0.26 | 91 | 1013.9 |
| 20260509231804 | 71 | 273 | 0.0 | 1.0 | 0.00 | 0.26 | 0.26 | 91 | 1013.9 |
| 20260509231301 | 71 | 320 | 0.0 | 3.0 | 0.00 | 0.26 | 0.26 | 91 | 1013.8 |
| 20260509230759 | 71 | 254 | 0.0 | 1.0 | 0.00 | 0.26 | 0.26 | 91 | 1013.8 |
| 20260509230256 | 71 | 254 | 1.0 | 3.0 | 0.00 | 0.26 | 0.26 | 91 | 1014.1 |
| 20260509225751 | 71 | 231 | 0.0 | 2.0 | 0.00 | 0.26 | 0.26 | 91 | 1013.9 |
| 20260509225247 | 71 | 47 | 0.0 | 0.0 | 0.02 | 0.26 | 0.26 | 91 | 1013.8 |
| 20260509224743 | 71 | 47 | 0.0 | 0.0 | 0.02 | 0.26 | 0.26 | 91 | 1013.8 |
| 20260509224241 | 71 | 47 | 0.0 | 0.0 | 0.00 | 0.25 | 0.25 | 91 | 1013.9 |
| 20260509223737 | 71 | 215 | 0.0 | 0.0 | 0.00 | 0.25 | 0.25 | 91 | 1013.8 |
| 20260509223234 | 71 | 215 | 0.0 | 0.0 | 0.00 | 0.25 | 0.25 | 91 | 1013.8 |
| 20260509222731 | 71 | 294 | 0.0 | 0.0 | 0.00 | 0.25 | 0.25 | 91 | 1013.7 |
| 20260509222226 | 71 | 294 | 0.0 | 0.0 | 0.00 | 0.25 | 0.25 | 91 | 1013.7 |
| 20260509221722 | 71 | 240 | 0.0 | 1.0 | 0.00 | 0.25 | 0.25 | 91 | 1013.7 |
| 20260509221219 | 71 | 282 | 0.0 | 1.0 | 0.00 | 0.25 | 0.25 | 91 | 1013.7 |
| 20260509220714 | 71 | 242 | 0.0 | 1.0 | 0.00 | 0.25 | 0.25 | 91 | 1013.6 |
| 20260509220211 | 71 | 268 | 0.0 | 0.0 | 0.00 | 0.25 | 0.25 | 91 | 1013.8 |
| 20260509215707 | 71 | 336 | 0.0 | 1.0 | 0.00 | 0.25 | 0.25 | 91 | 1013.8 |
| 20260509215204 | 71 | 35 | 0.0 | 2.0 | 0.00 | 0.25 | 0.25 | 91 | 1013.6 |
| 20260509214701 | 71 | 61 | 0.0 | 3.0 | 0.00 | 0.25 | 0.25 | 91 | 1013.7 |
| 20260509214158 | 71 | 294 | 0.0 | 2.0 | 0.00 | 0.25 | 0.25 | 91 | 1013.6 |
| 20260509213655 | 70 | 24 | 0.0 | 3.0 | 0.00 | 0.25 | 0.25 | 91 | 1013.7 |
| 20260509213150 | 71 | 15 | 2.0 | 4.0 | 0.00 | 0.25 | 0.25 | 91 | 1013.5 |
| 20260509212648 | 71 | 345 | 0.0 | 3.0 | 0.00 | 0.25 | 0.25 | 91 | 1013.7 |
| 20260509212144 | 71 | 358 | 1.0 | 4.0 | 0.00 | 0.25 | 0.25 | 91 | 1013.7 |
| 20260509211640 | 70 | 15 | 2.0 | 3.0 | 0.00 | 0.25 | 0.25 | 91 | 1013.7 |
| 20260509211137 | 71 | 45 | 0.0 | 3.0 | 0.00 | 0.25 | 0.25 | 91 | 1014.0 |
| 20260509210635 | 70 | 0 | 0.0 | 3.0 | 0.00 | 0.25 | 0.25 | 91 | 1013.8 |
| 20260509210131 | 71 | 22 | 3.0 | 4.0 | 0.00 | 0.25 | 0.25 | 91 | 1013.7 |
| 20260509205626 | 71 | 20 | 0.0 | 3.0 | 0.00 | 0.25 | 0.25 | 91 | 1013.9 |
| 20260509205120 | 70 | 356 | 1.0 | 3.0 | 0.00 | 0.25 | 0.25 | 91 | 1014.1 |
| 20260509204617 | 70 | 349 | 2.0 | 3.0 | 0.00 | 0.25 | 0.25 | 91 | 1013.9 |
| 20260509204114 | 69 | 11 | 1.0 | 6.0 | 0.00 | 0.25 | 0.25 | 91 | 1013.9 |
| 20260509203610 | 70 | 320 | 1.0 | 3.0 | 0.02 | 0.25 | 0.25 | 91 | 1014.0 |
| 20260509203109 | 70 | 331 | 2.0 | 6.0 | 0.00 | 0.25 | 0.25 | 91 | 1014.1 |
| 20260509202608 | 70 | 348 | 2.0 | 5.0 | 0.00 | 0.25 | 0.25 | 91 | 1014.3 |
| 20260509202059 | 70 | 13 | 2.0 | 5.0 | 0.00 | 0.25 | 0.25 | 91 | 1014.1 |
| 20260509201558 | 71 | 282 | 0.0 | 4.0 | 0.00 | 0.25 | 0.25 | 91 | 1014.2 |
| 20260509201057 | 71 | 350 | 0.0 | 3.0 | 0.02 | 0.25 | 0.25 | 91 | 1014.1 |
| 20260509200556 | 71 | 323 | 2.0 | 4.0 | 0.02 | 0.25 | 0.25 | 91 | 1014.1 |
| 20260509200053 | 72 | 310 | 1.0 | 4.0 | 0.12 | 0.24 | 0.24 | 91 | 1013.9 |
| 20260509195548 | 71 | 338 | 2.0 | 3.0 | 0.47 | 0.24 | 0.24 | 91 | 1014.1 |
| 20260509195043 | 71 | 330 | 2.0 | 4.0 | 0.26 | 0.20 | 0.20 | 91 | 1014.2 |
| 20260509194538 | 71 | 208 | 0.0 | 5.0 | 0.09 | 0.17 | 0.17 | 91 | 1014.2 |
| 20260509194036 | 71 | 333 | 2.0 | 5.0 | 0.05 | 0.15 | 0.15 | 91 | 1014.2 |
| 20260509193536 | 72 | 352 | 2.0 | 7.0 | 0.05 | 0.15 | 0.15 | 91 | 1014.0 |
| 20260509193033 | 73 | 208 | 1.0 | 9.0 | 0.05 | 0.15 | 0.15 | 91 | 1013.8 |
| 20260509192530 | 75 | 275 | 0.0 | 2.0 | 0.14 | 0.14 | 0.14 | 91 | 1013.6 |
| 20260509192025 | 75 | 234 | 0.0 | 2.0 | 0.21 | 0.13 | 0.13 | 91 | 1013.7 |
| 20260509191519 | 75 | 217 | 0.0 | 2.0 | 0.17 | 0.11 | 0.11 | 90 | 1013.7 |
| 20260509191015 | 75 | 241 | 0.0 | 2.0 | 0.07 | 0.09 | 0.09 | 89 | 1013.7 |
| 20260509190512 | 76 | 228 | 1.0 | 3.0 | 0.02 | 0.09 | 0.09 | 87 | 1013.6 |
| 20260509190010 | 77 | 205 | 0.0 | 3.0 | 0.00 | 0.08 | 0.08 | 84 | 1013.4 |
| 20260509185507 | 78 | 243 | 0.0 | 3.0 | 0.00 | 0.08 | 0.08 | 81 | 1013.4 |
| 20260509185004 | 78 | 214 | 2.0 | 4.0 | 0.00 | 0.08 | 0.08 | 80 | 1013.4 |
| 20260509184503 | 79 | 239 | 5.0 | 7.0 | 0.00 | 0.08 | 0.08 | 79 | 1013.5 |
| 20260509183958 | 80 | 187 | 2.0 | 5.0 | 0.00 | 0.08 | 0.08 | 79 | 1013.6 |
| 20260509183452 | 80 | 209 | 2.0 | 7.0 | 0.00 | 0.08 | 0.08 | 78 | 1013.6 |
| 20260509182949 | 80 | 244 | 2.0 | 5.0 | 0.00 | 0.08 | 0.08 | 78 | 1013.7 |
| 20260509182445 | 80 | 204 | 0.0 | 4.0 | 0.00 | 0.08 | 0.08 | 81 | 1013.8 |
| 20260509181938 | 80 | 214 | 2.0 | 5.0 | 0.00 | 0.08 | 0.08 | 79 | 1013.7 |
| 20260509181435 | 79 | 231 | 1.0 | 4.0 | 0.00 | 0.08 | 0.08 | 81 | 1013.8 |
| 20260509180932 | 78 | 217 | 0.0 | 2.0 | 0.00 | 0.08 | 0.08 | 82 | 1013.4 |
| 20260509180427 | 78 | 201 | 3.0 | 6.0 | 0.00 | 0.08 | 0.08 | 82 | 1013.9 |
| 20260509175924 | 79 | 205 | 0.0 | 4.0 | 0.00 | 0.08 | 0.08 | 80 | 1013.7 |
| 20260509175421 | 80 | 254 | 0.0 | 4.0 | 0.00 | 0.08 | 0.08 | 80 | 1013.8 |
| 20260509174917 | 80 | 234 | 2.0 | 5.0 | 0.00 | 0.08 | 0.08 | 77 | 1013.9 |
| 20260509174413 | 81 | 199 | 1.0 | 3.0 | 0.00 | 0.08 | 0.08 | 76 | 1013.7 |
| 20260509173909 | 81 | 157 | 2.0 | 4.0 | 0.00 | 0.08 | 0.08 | 76 | 1013.9 |
| 20260509173403 | 81 | 236 | 5.0 | 6.0 | 0.00 | 0.08 | 0.08 | 75 | 1013.7 |
| 20260509172901 | 82 | 270 | 0.0 | 4.0 | 0.00 | 0.08 | 0.08 | 76 | 1013.9 |
| 20260509172357 | 81 | 218 | 1.0 | 5.0 | 0.00 | 0.08 | 0.08 | 77 | 1013.9 |
| 20260509171853 | 80 | 328 | 0.0 | 4.0 | 0.00 | 0.08 | 0.08 | 79 | 1013.8 |
| 20260509171349 | 79 | 264 | 2.0 | 4.0 | 0.00 | 0.08 | 0.08 | 78 | 1013.8 |
| 20260509170845 | 80 | 233 | 1.0 | 4.0 | 0.00 | 0.08 | 0.08 | 76 | 1014.0 |
| 20260509170336 | 79 | 234 | 3.0 | 8.0 | 0.00 | 0.08 | 0.08 | 77 | 1014.2 |
| 20260509165836 | 81 | 202 | 0.0 | 2.0 | 0.00 | 0.08 | 0.08 | 76 | 1014.2 |
| 20260509165330 | 80 | 289 | 2.0 | 4.0 | 0.00 | 0.08 | 0.08 | 76 | 1014.1 |
| 20260509164827 | 80 | 87 | 3.0 | 4.0 | 0.00 | 0.08 | 0.08 | 77 | 1014.1 |
| 20260509164323 | 79 | 42 | 0.0 | 4.0 | 0.00 | 0.08 | 0.08 | 78 | 1014.0 |
| 20260509163819 | 80 | 268 | 2.0 | 8.0 | 0.00 | 0.08 | 0.08 | 78 | 1014.2 |
| 20260509163316 | 80 | 21 | 0.0 | 5.0 | 0.00 | 0.08 | 0.08 | 78 | 1014.2 |
| 20260509162816 | 80 | 51 | 0.0 | 3.0 | 0.00 | 0.08 | 0.08 | 78 | 1014.1 |
| 20260509162309 | 80 | 264 | 4.0 | 5.0 | 0.00 | 0.08 | 0.08 | 78 | 1014.1 |
| 20260509161805 | 79 | 197 | 0.0 | 3.0 | 0.00 | 0.08 | 0.08 | 78 | 1014.2 |
| 20260509161302 | 80 | 65 | 1.0 | 2.0 | 0.00 | 0.08 | 0.08 | 77 | 1014.3 |
| 20260509160757 | 78 | 280 | 0.0 | 3.0 | 0.00 | 0.08 | 0.08 | 81 | 1014.2 |
| 20260509160254 | 78 | 343 | 3.0 | 5.0 | 0.00 | 0.08 | 0.08 | 78 | 1014.2 |
| 20260509155748 | 79 | 241 | 2.0 | 3.0 | 0.00 | 0.08 | 0.08 | 79 | 1014.0 |
| 20260509155246 | 77 | 11 | 2.0 | 4.0 | 0.00 | 0.08 | 0.08 | 80 | 1013.8 |
| 20260509154741 | 77 | 11 | 1.0 | 3.0 | 0.00 | 0.08 | 0.08 | 81 | 1013.6 |
| 20260509154239 | 77 | 352 | 1.0 | 2.0 | 0.00 | 0.08 | 0.08 | 82 | 1013.8 |
| 20260509153736 | 77 | 9 | 1.0 | 2.0 | 0.00 | 0.08 | 0.08 | 82 | 1014.1 |
| 20260509153231 | 76 | 300 | 0.0 | 4.0 | 0.00 | 0.08 | 0.08 | 80 | 1014.0 |
| 20260509152728 | 78 | 31 | 2.0 | 3.0 | 0.00 | 0.08 | 0.08 | 80 | 1014.3 |
| 20260509152225 | 77 | 328 | 2.0 | 4.0 | 0.00 | 0.08 | 0.08 | 80 | 1014.5 |
| 20260509151722 | 76 | 322 | 0.0 | 3.0 | 0.00 | 0.08 | 0.08 | 81 | 1014.4 |
| 20260509151219 | 75 | 325 | 1.0 | 4.0 | 0.00 | 0.08 | 0.08 | 82 | 1014.8 |
| 20260509150716 | 75 | 19 | 0.0 | 3.0 | 0.00 | 0.08 | 0.08 | 83 | 1014.9 |
| 20260509150214 | 75 | 13 | 0.0 | 3.0 | 0.00 | 0.08 | 0.08 | 85 | 1015.2 |
| 20260509145711 | 75 | 342 | 0.0 | 3.0 | 0.00 | 0.08 | 0.08 | 86 | 1015.2 |
| 20260509145206 | 74 | 6 | 0.0 | 5.0 | 0.00 | 0.08 | 0.08 | 86 | 1015.0 |
| 20260509144703 | 73 | 0 | 2.0 | 3.0 | 0.00 | 0.08 | 0.08 | 87 | 1015.2 |
| 20260509144200 | 73 | 350 | 1.0 | 4.0 | 0.00 | 0.08 | 0.08 | 89 | 1015.0 |
| 20260509143657 | 73 | 342 | 0.0 | 3.0 | 0.00 | 0.08 | 0.08 | 91 | 1015.0 |
| 20260509143154 | 72 | 61 | 0.0 | 1.0 | 0.00 | 0.08 | 0.08 | 91 | 1014.7 |
| 20260509142649 | 72 | 357 | 1.0 | 2.0 | 0.00 | 0.08 | 0.08 | 91 | 1014.6 |
| 20260509142147 | 71 | 337 | 0.0 | 3.0 | 0.00 | 0.08 | 0.08 | 91 | 1014.6 |
| 20260509141642 | 72 | 11 | 0.0 | 3.0 | 0.00 | 0.08 | 0.08 | 91 | 1014.6 |
| 20260509141139 | 71 | 320 | 0.0 | 3.0 | 0.00 | 0.08 | 0.08 | 91 | 1014.7 |
| 20260509140636 | 70 | 241 | 0.0 | 5.0 | 0.00 | 0.08 | 0.08 | 91 | 1014.6 |
| 20260509140134 | 71 | 29 | 1.0 | 3.0 | 0.00 | 0.08 | 0.08 | 91 | 1014.5 |
| 20260509135631 | 71 | 20 | 0.0 | 3.0 | 0.00 | 0.08 | 0.08 | 91 | 1014.7 |
| 20260509135129 | 70 | 20 | 2.0 | 3.0 | 0.00 | 0.08 | 0.08 | 91 | 1014.4 |
| 20260509134625 | 71 | 15 | 0.0 | 2.0 | 0.00 | 0.08 | 0.08 | 91 | 1014.4 |
| 20260509134123 | 70 | 215 | 0.0 | 1.0 | 0.00 | 0.08 | 0.08 | 91 | 1014.7 |
| 20260509133620 | 69 | 224 | 2.0 | 3.0 | 0.00 | 0.08 | 0.08 | 91 | 1014.5 |
| 20260509133117 | 69 | 225 | 2.0 | 3.0 | 0.00 | 0.08 | 0.08 | 91 | 1014.5 |
| 20260509132615 | 70 | 306 | 0.0 | 2.0 | 0.00 | 0.08 | 0.08 | 91 | 1014.3 |
| 20260509132113 | 69 | 240 | 0.0 | 1.0 | 0.00 | 0.08 | 0.08 | 91 | 1014.2 |
| 20260509131609 | 70 | 336 | 0.0 | 2.0 | 0.00 | 0.08 | 0.08 | 91 | 1014.1 |
| 20260509131106 | 69 | 336 | 0.0 | 1.0 | 0.00 | 0.08 | 0.08 | 91 | 1014.0 |
| 20260509130602 | 69 | 29 | 0.0 | 2.0 | 0.00 | 0.08 | 0.08 | 91 | 1014.1 |
| 20260509130058 | 70 | 282 | 0.0 | 1.0 | 0.00 | 0.08 | 0.08 | 91 | 1013.9 |
| 20260509125555 | 69 | 7 | 0.0 | 2.0 | 0.00 | 0.08 | 0.08 | 91 | 1013.8 |
| 20260509125052 | 69 | 3 | 1.0 | 3.0 | 0.00 | 0.08 | 0.08 | 91 | 1014.0 |
| 20260509124548 | 69 | 318 | 0.0 | 2.0 | 0.00 | 0.08 | 0.08 | 91 | 1014.0 |
| 20260509124045 | 69 | 342 | 0.0 | 3.0 | 0.00 | 0.08 | 0.08 | 91 | 1013.9 |
| 20260509123543 | 69 | 17 | 0.0 | 2.0 | 0.00 | 0.08 | 0.08 | 91 | 1013.7 |
| 20260509123039 | 69 | 0 | 0.0 | 2.0 | 0.00 | 0.08 | 0.08 | 91 | 1013.7 |
| 20260509122536 | 69 | 332 | 3.0 | 3.0 | 0.00 | 0.08 | 0.08 | 91 | 1013.7 |
| 20260509122033 | 69 | 47 | 0.0 | 2.0 | 0.00 | 0.08 | 0.08 | 91 | 1013.5 |
| 20260509121529 | 68 | 4 | 0.0 | 2.0 | 0.00 | 0.08 | 0.08 | 91 | 1013.8 |
| 20260509121027 | 68 | 351 | 0.0 | 2.0 | 0.00 | 0.08 | 0.08 | 91 | 1013.8 |
| 20260509120525 | 68 | 336 | 0.0 | 2.0 | 0.00 | 0.08 | 0.08 | 91 | 1013.7 |
| 20260509120023 | 68 | 353 | 0.0 | 3.0 | 0.00 | 0.08 | 0.08 | 91 | 1013.8 |
| 20260509115520 | 67 | 3 | 0.0 | 2.0 | 0.00 | 0.08 | 0.08 | 91 | 1013.8 |
| 20260509115018 | 67 | 337 | 1.0 | 2.0 | 0.00 | 0.08 | 0.08 | 91 | 1013.8 |
| 20260509114515 | 67 | 350 | 2.0 | 2.0 | 0.00 | 0.08 | 0.08 | 91 | 1013.8 |
| 20260509114014 | 67 | 345 | 0.0 | 2.0 | 0.00 | 0.08 | 0.08 | 91 | 1013.6 |
| 20260509113512 | 67 | 6 | 0.0 | 2.0 | 0.00 | 0.08 | 0.08 | 91 | 1013.4 |
| 20260509113010 | 67 | 3 | 1.0 | 3.0 | 0.00 | 0.08 | 0.08 | 91 | 1013.5 |
| 20260509112506 | 67 | 42 | 1.0 | 4.0 | 0.00 | 0.08 | 0.08 | 91 | 1013.3 |
| 20260509112002 | 67 | 315 | 2.0 | 2.0 | 0.00 | 0.08 | 0.08 | 91 | 1013.5 |
| 20260509111500 | 66 | 354 | 1.0 | 3.0 | 0.00 | 0.08 | 0.08 | 91 | 1013.2 |
| 20260509110957 | 66 | 345 | 2.0 | 2.0 | 0.00 | 0.08 | 0.08 | 91 | 1013.0 |
| 20260509110453 | 66 | 339 | 2.0 | 3.0 | 0.00 | 0.08 | 0.08 | 91 | 1013.0 |
| 20260509105951 | 66 | 16 | 0.0 | 3.0 | 0.00 | 0.08 | 0.08 | 91 | 1013.0 |
| 20260509105449 | 66 | 353 | 0.0 | 2.0 | 0.00 | 0.08 | 0.08 | 91 | 1013.1 |
| 20260509104946 | 66 | 309 | 0.0 | 2.0 | 0.00 | 0.08 | 0.08 | 91 | 1012.8 |
| 20260509104443 | 66 | 357 | 2.0 | 3.0 | 0.00 | 0.08 | 0.08 | 91 | 1012.4 |
| 20260509103940 | 66 | 29 | 0.0 | 2.0 | 0.00 | 0.08 | 0.08 | 91 | 1012.3 |
| 20260509103438 | 66 | 3 | 2.0 | 4.0 | 0.00 | 0.08 | 0.08 | 91 | 1012.6 |
| 20260509102936 | 66 | 333 | 1.0 | 3.0 | 0.00 | 0.08 | 0.08 | 91 | 1012.3 |
| 20260509102433 | 66 | 289 | 0.0 | 1.0 | 0.00 | 0.08 | 0.08 | 91 | 1012.4 |
| 20260509101929 | 66 | 311 | 0.0 | 2.0 | 0.00 | 0.08 | 0.08 | 91 | 1012.5 |
| 20260509101425 | 66 | 353 | 2.0 | 3.0 | 0.00 | 0.08 | 0.08 | 91 | 1012.6 |
| 20260509100923 | 66 | 358 | 1.0 | 3.0 | 0.00 | 0.08 | 0.08 | 91 | 1012.4 |
| 20260509100420 | 66 | 328 | 0.0 | 1.0 | 0.00 | 0.08 | 0.08 | 91 | 1012.1 |
| 20260509095916 | 66 | 318 | 0.0 | 1.0 | 0.00 | 0.08 | 0.08 | 91 | 1011.7 |
| 20260509095414 | 66 | 318 | 0.0 | 2.0 | 0.00 | 0.08 | 0.08 | 91 | 1011.9 |
| 20260509094911 | 66 | 31 | 1.0 | 1.0 | 0.00 | 0.08 | 0.08 | 91 | 1011.7 |
| 20260509094407 | 66 | 318 | 0.0 | 0.0 | 0.00 | 0.08 | 0.08 | 91 | 1012.0 |
| 20260509093905 | 66 | 249 | 0.0 | 2.0 | 0.00 | 0.08 | 0.08 | 91 | 1011.9 |
| 20260509093402 | 66 | 358 | 0.0 | 4.0 | 0.00 | 0.08 | 0.08 | 91 | 1011.7 |
| 20260509092901 | 66 | 304 | 1.0 | 2.0 | 0.00 | 0.08 | 0.08 | 91 | 1011.4 |
| 20260509092357 | 67 | 260 | 0.0 | 2.0 | 0.00 | 0.08 | 0.08 | 91 | 1011.4 |
| 20260509091856 | 66 | 310 | 0.0 | 1.0 | 0.00 | 0.08 | 0.08 | 91 | 1011.7 |
| 20260509091352 | 66 | 241 | 0.0 | 2.0 | 0.00 | 0.08 | 0.08 | 91 | 1011.9 |
| 20260509090850 | 66 | 326 | 1.0 | 3.0 | 0.00 | 0.08 | 0.08 | 91 | 1012.0 |
| 20260509090347 | 67 | 175 | 0.0 | 4.0 | 0.00 | 0.08 | 0.08 | 91 | 1011.7 |
| 20260509085844 | 66 | 298 | 2.0 | 4.0 | 0.00 | 0.08 | 0.08 | 91 | 1011.4 |
| 20260509085341 | 66 | 339 | 1.0 | 4.0 | 0.00 | 0.08 | 0.08 | 91 | 1011.6 |
| 20260509084838 | 66 | 324 | 0.0 | 1.0 | 0.00 | 0.08 | 0.08 | 91 | 1012.0 |
| 20260509084335 | 66 | 34 | 0.0 | 1.0 | 0.00 | 0.08 | 0.08 | 91 | 1012.5 |
| 20260509083833 | 66 | 345 | 0.0 | 2.0 | 0.00 | 0.08 | 0.08 | 91 | 1012.8 |
| 20260509083329 | 66 | 0 | 0.0 | 0.0 | 0.00 | 0.08 | 0.08 | 91 | 1012.8 |
| 20260509082826 | 66 | 351 | 0.0 | 2.0 | 0.00 | 0.08 | 0.08 | 91 | 1013.1 |
| 20260509082322 | 66 | 5 | 0.0 | 2.0 | 0.00 | 0.08 | 0.08 | 91 | 1013.2 |
| 20260509081820 | 66 | 345 | 0.0 | 1.0 | 0.00 | 0.08 | 0.08 | 91 | 1013.2 |
| 20260509081317 | 66 | 349 | 0.0 | 2.0 | 0.00 | 0.08 | 0.08 | 91 | 1013.1 |
| 20260509080815 | 66 | 322 | 1.0 | 2.0 | 0.00 | 0.08 | 0.08 | 91 | 1013.1 |
| 20260509080312 | 66 | 333 | 1.0 | 3.0 | 0.00 | 0.08 | 0.08 | 91 | 1012.6 |
| 20260509075810 | 66 | 325 | 2.0 | 4.0 | 0.00 | 0.08 | 0.08 | 91 | 1012.8 |
| 20260509075307 | 66 | 344 | 0.0 | 2.0 | 0.00 | 0.08 | 0.08 | 91 | 1012.6 |
| 20260509074804 | 66 | 256 | 1.0 | 2.0 | 0.00 | 0.08 | 0.08 | 91 | 1012.7 |
| 20260509074302 | 66 | 330 | 0.0 | 2.0 | 0.00 | 0.08 | 0.08 | 91 | 1012.7 |
| 20260509073758 | 66 | 347 | 0.0 | 2.0 | 0.00 | 0.08 | 0.08 | 91 | 1012.6 |
| 20260509073254 | 66 | 11 | 1.0 | 2.0 | 0.00 | 0.08 | 0.08 | 91 | 1012.9 |
| 20260509072751 | 66 | 254 | 0.0 | 2.0 | 0.00 | 0.08 | 0.08 | 91 | 1012.7 |
| 20260509072248 | 66 | 222 | 0.0 | 4.0 | 0.00 | 0.08 | 0.08 | 91 | 1012.9 |
| 20260509071744 | 66 | 325 | 1.0 | 2.0 | 0.00 | 0.08 | 0.08 | 91 | 1012.8 |
| 20260509071242 | 66 | 326 | 0.0 | 2.0 | 0.00 | 0.08 | 0.08 | 91 | 1013.0 |
| 20260509070739 | 66 | 341 | 0.0 | 2.0 | 0.00 | 0.08 | 0.08 | 91 | 1013.3 |
| 20260509070235 | 66 | 292 | 1.0 | 2.0 | 0.00 | 0.08 | 0.08 | 91 | 1013.4 |
| 20260509065732 | 66 | 303 | 0.0 | 1.0 | 0.00 | 0.08 | 0.08 | 91 | 1013.4 |
| 20260509065228 | 66 | 345 | 0.0 | 2.0 | 0.00 | 0.08 | 0.08 | 91 | 1013.4 |
| 20260509064724 | 66 | 289 | 0.0 | 1.0 | 0.00 | 0.08 | 0.08 | 91 | 1013.6 |
| 20260509064222 | 66 | 278 | 0.0 | 1.0 | 0.00 | 0.08 | 0.08 | 91 | 1013.9 |
| 20260509063719 | 66 | 40 | 0.0 | 1.0 | 0.00 | 0.08 | 0.08 | 91 | 1013.9 |
| 20260509063215 | 66 | 248 | 1.0 | 1.0 | 0.00 | 0.08 | 0.08 | 91 | 1013.9 |
| 20260509062713 | 67 | 277 | 2.0 | 2.0 | 0.00 | 0.08 | 0.08 | 91 | 1013.9 |